Change the Weather History Date:

Saturday, November 24, 2012

  Actual Average (LIRN) Record (LIRN)
Temperature  
Mean Temperature 56 °F -  
Max Temperature 67 °F 58 °F 71 °F (2002)
Min Temperature 44 °F 41 °F 35 °F (2008)
Degree Days  
Heating Degree Days 10    
Growing Degree Days 6 (Base 50)    
Moisture  
Dew Point 49 °F    
Average Humidity 86    
Maximum Humidity 100    
Minimum Humidity 58    
Precipitation  
Precipitation 0.00 in 0.14 in - ()
Sea Level Pressure  
Sea Level Pressure 30.23 in    
Wind  
Wind Speed 3 mph ()    
Max Wind Speed 10 mph    
Max Gust Speed -    
Visibility 2.5 miles    
Events Fog    
Averages and records for this station are not official NWS values.
T = Trace of Precipitation, MM = Missing Value Source: Averaged Metar Reports

Daily Weather History Graph

Daily Weather History Graph

Search for Another Location

Airport or City:

Trip Planner

Search our weather history database for the weather conditions in past years. The results will help you decide how hot, cold, wet, or windy it might be!

Date:

Astronomy

Nov. 24, 2012 Rise Set
Actual Time 7:02 AM CET 4:38 PM CET
Civil Twilight 6:31 AM CET 5:08 PM CET
Nautical Twilight 5:58 AM CET 5:42 PM CET
Astronomical Twilight 5:25 AM CET 6:15 PM CET
Moon 2:15 PM CET (11/24) 3:00 AM CET (11/24)
Length of Visible Light 10h 36m
Length of Day
9h 36m
Waxing Gibbous, 85% of the Moon is Illuminated
Nov 24
Waxing Gibbous
Nov 28
Full
Dec 6
Last Quarter
Dec 13
New
Dec 20
First Quarter

Hourly Weather History & Observations

Time (CET) Temp. Windchill Dew Point Humidity Pressure Visibility Wind Dir Wind Speed Gust Speed Precip Events Conditions
12:55 AM 48.2 °F - 46.4 °F 93% 30.21 in 1.2 mi NNE 1.2 mph - N/A Fog Fog
1:00 AM 47 °F - 46 °F 95% 30.23 in 1 mi NNE 1.2 mph - -  
1:55 AM 46.4 °F - 44.6 °F 93% 30.21 in 1.2 mi NNE 2.3 mph - N/A Fog Fog
3:55 AM 46.4 °F - 44.6 °F 93% 30.21 in 1.2 mi NE 2.3 mph - N/A Fog Fog
4:00 AM 46 °F - 44 °F 92% 30.22 in 1 mi NE 2.3 mph - - Fog Patches of Fog
5:55 AM 44.6 °F 41.4 °F 42.8 °F 93% 30.21 in 1.6 mi North 5.8 mph - N/A   Mist
6:55 AM 44.6 °F 42.2 °F 42.8 °F 93% 30.21 in 1.9 mi North 4.6 mph - N/A   Mist
7:00 AM 45 °F - 44 °F 93% 30.24 in 2 mi North 4.6 mph - -  
7:55 AM 46.4 °F 45.2 °F 44.6 °F 93% 30.21 in 2.5 mi North 3.5 mph - N/A   Mist
8:55 AM 51.8 °F - 48.2 °F 88% 30.24 in 2.5 mi NNE 3.5 mph - N/A   Mist
9:55 AM 57.2 °F - 51.8 °F 82% 30.24 in 3.7 mi NE 10.4 mph - N/A   Unknown
10:00 AM 57 °F - 51 °F 74% 30.26 in 4 mi NE 10.4 mph - -   Mist
10:55 AM 59.0 °F - 50.0 °F 72% 30.24 in 4.3 mi ENE 3.5 mph - N/A   Unknown
11:55 AM 62.6 °F - 51.8 °F 68% 30.24 in 4.3 mi Calm Calm - N/A   Unknown
12:55 PM 64.4 °F - 53.6 °F 68% 30.24 in 5.0 mi ESE 2.3 mph - N/A   Unknown
1:00 PM 64 °F - 53 °F 58% 30.25 in 5 mi ESE 2.3 mph - -   Mist
1:55 PM 66.2 °F - 53.6 °F 64% 30.21 in 5.0 mi Calm Calm - N/A   Unknown
2:55 PM 64.4 °F - 53.6 °F 68% 30.21 in 5.0 mi West 2.3 mph - N/A   Unknown
3:55 PM 59.0 °F - 51.8 °F 77% 30.21 in 4.3 mi West 3.5 mph - N/A   Unknown
4:00 PM 60 °F - 53 °F 69% 30.22 in 4 mi West 3.5 mph - -   Mist
4:55 PM 55.4 °F - 53.6 °F 94% 30.21 in 3.1 mi West 2.3 mph - N/A   Mist
5:55 PM 55.4 °F - 53.6 °F 94% 30.21 in 1.9 mi WSW 2.3 mph - N/A   Mist
6:55 PM 51.8 °F - 50.0 °F 94% 30.21 in 1.9 mi Calm Calm - N/A   Mist
7:00 PM 51 °F - 50 °F 95% 30.23 in 2 mi Calm Calm - -   Mist
7:55 PM 48.2 °F - 48.2 °F 100% 30.21 in 1.6 mi Calm Calm - N/A   Scattered Clouds
8:55 PM 48.2 °F - 48.2 °F 100% 30.21 in 1.2 mi East 2.3 mph - N/A   Scattered Clouds
9:55 PM 48.2 °F - 46.4 °F 93% 30.24 in 1.1 mi East 2.3 mph - N/A   Scattered Clouds
10:00 PM 47 °F - 46 °F 97% 30.25 in 1 mi East 2.3 mph - -   Mist
10:55 PM 46.4 °F - 44.6 °F 93% 30.24 in 1.1 mi ENE 2.3 mph - N/A   Scattered Clouds
11:55 PM 46.4 °F 44.3 °F 44.6 °F 93% 30.24 in 0.7 mi NNE 4.6 mph - N/A   Scattered Clouds